| time (UTC) | temp C | wind direction | speed KPH | gust KPH | rain 1hr cm | rain 24hr cm | rain mn cm | humidity % | barometer mb |
| 20260508044603 | 16 | 0 | 0.0 | 3.2 | 0.00 | 0.00 | 0.00 | 82 | 1005.7 |
| 20260508043059 | 15 | 0 | 0.0 | 0.0 | 0.00 | 0.00 | 0.00 | 83 | 1005.6 |
| 20260508041554 | 15 | 0 | 0.0 | 0.0 | 0.00 | 0.00 | 0.00 | 84 | 1005.4 |
| 20260508034555 | 14 | 146 | 0.0 | 6.4 | 0.00 | 0.00 | 0.00 | 84 | 1005.2 |
| 20260508033047 | 14 | 144 | 1.6 | 6.4 | 0.00 | 0.00 | 0.00 | 83 | 1005.2 |
| 20260508031551 | 15 | 0 | 0.0 | 4.8 | 0.00 | 0.00 | 0.00 | 83 | 1005.3 |
| 20260508030059 | 15 | 88 | 0.0 | 3.2 | 0.00 | 0.00 | 0.00 | 83 | 1005.2 |
| 20260508024550 | 15 | 0 | 0.0 | 0.0 | 0.00 | 0.00 | 0.00 | 82 | 1005.2 |
| 20260508023047 | 15 | 0 | 0.0 | 0.0 | 0.00 | 0.00 | 0.00 | 80 | 1005.2 |
| 20260508021553 | 15 | 0 | 0.0 | 3.2 | 0.00 | 0.00 | 0.00 | 80 | 1005.2 |
| 20260508020053 | 15 | 75 | 0.0 | 4.8 | 0.00 | 0.00 | 0.00 | 80 | 1005.1 |
| 20260508014549 | 15 | 76 | 1.6 | 4.8 | 0.00 | 0.00 | 0.00 | 80 | 1005.1 |
| 20260508013051 | 15 | 0 | 0.0 | 4.8 | 0.00 | 0.00 | 0.00 | 80 | 1005.2 |
| 20260508011546 | 15 | 75 | 0.0 | 6.4 | 0.00 | 0.00 | 0.00 | 80 | 1005.2 |
| 20260508010046 | 15 | 73 | 1.6 | 6.4 | 0.00 | 0.00 | 0.00 | 79 | 1005.1 |
| 20260508004551 | 16 | 70 | 1.6 | 8.0 | 0.00 | 0.00 | 0.00 | 78 | 1005.0 |
| 20260508003049 | 16 | 64 | 4.8 | 9.7 | 0.00 | 0.00 | 0.00 | 78 | 1004.9 |
| 20260508001551 | 17 | 48 | 1.6 | 8.0 | 0.00 | 0.00 | 0.00 | 77 | 1005.1 |
| 20260508000048 | 18 | 30 | 3.2 | 8.0 | 0.00 | 0.00 | 0.00 | 76 | 1005.1 |
| 20260507234559 | 18 | 314 | 1.6 | 4.8 | 0.00 | 0.00 | 0.00 | 75 | 1005.1 |
| 20260507233046 | 18 | 314 | 3.2 | 9.7 | 0.00 | 0.00 | 0.00 | 73 | 1005.1 |
| 20260507231556 | 18 | 310 | 3.2 | 6.4 | 0.00 | 0.00 | 0.00 | 73 | 1005.0 |
| 20260507230049 | 19 | 309 | 1.6 | 8.0 | 0.00 | 0.00 | 0.00 | 72 | 1005.0 |
| 20260507224551 | 19 | 316 | 4.8 | 9.7 | 0.00 | 0.00 | 0.00 | 71 | 1004.9 |
| 20260507223055 | 19 | 0 | 3.2 | 14.5 | 0.00 | 0.00 | 0.00 | 70 | 1004.8 |
| 20260507221550 | 20 | 307 | 3.2 | 8.0 | 0.00 | 0.00 | 0.00 | 69 | 1004.9 |
| 20260507220046 | 19 | 279 | 0.0 | 4.8 | 0.00 | 0.00 | 0.00 | 70 | 1005.0 |
| 20260507214557 | 20 | 0 | 0.0 | 8.0 | 0.00 | 0.00 | 0.00 | 70 | 1004.9 |
| 20260507213049 | 19 | 0 | 1.6 | 6.4 | 0.00 | 0.00 | 0.00 | 71 | 1004.9 |
| 20260507211546 | 19 | 245 | 1.6 | 4.8 | 0.00 | 0.00 | 0.00 | 72 | 1004.9 |
| 20260507210052 | 20 | 245 | 0.0 | 4.8 | 0.00 | 0.00 | 0.00 | 71 | 1005.1 |
| 20260507204547 | 20 | 243 | 4.8 | 12.9 | 0.00 | 0.00 | 0.00 | 68 | 1005.3 |
| 20260507203057 | 21 | 0 | 0.0 | 8.0 | 0.00 | 0.00 | 0.00 | 63 | 1005.4 |
| 20260507201544 | 21 | 306 | 1.6 | 6.4 | 0.00 | 0.00 | 0.00 | 63 | 1005.3 |
| 20260507200052 | 21 | 0 | 0.0 | 3.2 | 0.00 | 0.00 | 0.00 | 62 | 1005.4 |
| 20260507194550 | 21 | 293 | 3.2 | 8.0 | 0.00 | 0.00 | 0.00 | 61 | 1005.4 |
| 20260507193054 | 21 | 0 | 3.2 | 17.7 | 0.00 | 0.00 | 0.00 | 62 | 1005.2 |
| 20260507191545 | 21 | 0 | 0.0 | 4.8 | 0.00 | 0.00 | 0.00 | 65 | 1005.3 |
| 20260507190045 | 21 | 0 | 0.0 | 4.8 | 0.00 | 0.00 | 0.00 | 65 | 1005.2 |
| 20260507184544 | 21 | 0 | 0.0 | 4.8 | 0.00 | 0.00 | 0.00 | 64 | 1004.9 |
| 20260507183054 | 21 | 0 | 0.0 | 3.2 | 0.00 | 0.00 | 0.00 | 62 | 1004.7 |
| 20260507181549 | 22 | 217 | 1.6 | 6.4 | 0.00 | 0.00 | 0.00 | 58 | 1004.6 |
| 20260507180047 | 22 | 0 | 0.0 | 0.0 | 0.00 | 0.00 | 0.00 | 54 | 1004.4 |
| 20260507174551 | 23 | 0 | 0.0 | 0.0 | 0.00 | 0.00 | 0.00 | 51 | 1004.1 |
| 20260507173100 | 23 | 0 | 0.0 | 0.0 | 0.00 | 0.00 | 0.00 | 51 | 1004.0 |
| 20260507171607 | 23 | 0 | 0.0 | 0.0 | 0.00 | 0.00 | 0.00 | 50 | 1003.9 |
| 20260507170056 | 24 | 0 | 0.0 | 3.2 | 0.00 | 0.00 | 0.00 | 49 | 1004.0 |
| 20260507164602 | 24 | 0 | 0.0 | 1.6 | 0.00 | 0.00 | 0.00 | 48 | 1003.9 |
| 20260507163049 | 25 | 0 | 0.0 | 6.4 | 0.00 | 0.00 | 0.00 | 46 | 1003.9 |
| 20260507161553 | 25 | 218 | 0.0 | 6.4 | 0.00 | 0.00 | 0.00 | 45 | 1004.0 |
| 20260507160059 | 25 | 214 | 0.0 | 8.0 | 0.00 | 0.00 | 0.00 | 44 | 1004.0 |
| 20260507154544 | 25 | 0 | 1.6 | 8.0 | 0.00 | 0.00 | 0.00 | 43 | 1003.9 |
| 20260507153050 | 25 | 150 | 1.6 | 8.0 | 0.00 | 0.00 | 0.00 | 43 | 1003.9 |
| 20260507151551 | 26 | 0 | 1.6 | 9.7 | 0.00 | 0.00 | 0.00 | 39 | 1004.0 |
| 20260507150059 | 26 | 163 | 0.0 | 9.7 | 0.00 | 0.00 | 0.00 | 41 | 1004.2 |
| 20260507144550 | 26 | 0 | 1.6 | 6.4 | 0.00 | 0.00 | 0.00 | 39 | 1004.1 |
| 20260507143103 | 25 | 183 | 1.6 | 8.0 | 0.00 | 0.00 | 0.00 | 41 | 1004.1 |
| 20260507141555 | 25 | 144 | 4.8 | 12.9 | 0.00 | 0.00 | 0.00 | 44 | 1004.4 |
| 20260507140048 | 25 | 142 | 0.0 | 12.9 | 0.00 | 0.00 | 0.00 | 44 | 1004.4 |
| 20260507134557 | 25 | 142 | 4.8 | 11.3 | 0.00 | 0.00 | 0.00 | 45 | 1004.6 |
| 20260507133048 | 24 | 124 | 4.8 | 14.5 | 0.00 | 0.00 | 0.00 | 46 | 1004.6 |
| 20260507131602 | 24 | 148 | 4.8 | 14.5 | 0.00 | 0.00 | 0.00 | 48 | 1004.7 |
| 20260507130055 | 25 | 112 | 3.2 | 14.5 | 0.00 | 0.00 | 0.00 | 47 | 1004.9 |
| 20260507124555 | 25 | 158 | 3.2 | 11.3 | 0.00 | 0.00 | 0.00 | 46 | 1004.9 |
| 20260507123056 | 25 | 131 | 4.8 | 12.9 | 0.00 | 0.00 | 0.00 | 44 | 1005.1 |
| 20260507121558 | 25 | 81 | 1.6 | 12.9 | 0.00 | 0.00 | 0.00 | 46 | 1005.2 |
| 20260507120048 | 23 | 130 | 9.7 | 14.5 | 0.00 | 0.00 | 0.00 | 44 | 1005.3 |
| 20260507114551 | 23 | 133 | 3.2 | 11.3 | 0.00 | 0.00 | 0.00 | 46 | 1005.4 |
| 20260507113045 | 23 | 17 | 4.8 | 17.7 | 0.00 | 0.00 | 0.00 | 44 | 1005.4 |
| 20260507111544 | 23 | 121 | 4.8 | 16.1 | 0.00 | 0.00 | 0.00 | 45 | 1005.5 |
| 20260507104547 | 23 | 167 | 1.6 | 16.1 | 0.00 | 0.00 | 0.00 | 42 | 1005.6 |
| 20260507103050 | 23 | 128 | 3.2 | 14.5 | 0.00 | 0.00 | 0.00 | 42 | 1005.8 |
| 20260507101550 | 22 | 107 | 6.4 | 17.7 | 0.00 | 0.00 | 0.00 | 46 | 1005.8 |
| 20260507100054 | 23 | 176 | 3.2 | 11.3 | 0.00 | 0.00 | 0.00 | 43 | 1005.9 |
| 20260507094544 | 22 | 151 | 3.2 | 16.1 | 0.00 | 0.00 | 0.00 | 46 | 1005.9 |
| 20260507093042 | 21 | 115 | 9.7 | 14.5 | 0.00 | 0.00 | 0.00 | 42 | 1006.1 |
| 20260507091608 | 21 | 115 | 8.0 | 14.5 | 0.00 | 0.00 | 0.00 | 47 | 1006.1 |
| 20260507090050 | 21 | 128 | 1.6 | 12.9 | 0.00 | 0.00 | 0.00 | 46 | 1006.1 |
| 20260507084557 | 21 | 128 | 8.0 | 14.5 | 0.00 | 0.00 | 0.00 | 46 | 1006.1 |
| 20260507083053 | 20 | 111 | 8.0 | 17.7 | 0.00 | 0.00 | 0.00 | 46 | 1006.0 |
| 20260507081550 | 20 | 205 | 6.4 | 16.1 | 0.00 | 0.00 | 0.00 | 46 | 1006.0 |
| 20260507080049 | 20 | 132 | 6.4 | 16.1 | 0.00 | 0.00 | 0.00 | 45 | 1006.0 |
| 20260507074550 | 19 | 115 | 9.7 | 17.7 | 0.00 | 0.00 | 0.00 | 46 | 1005.8 |
| 20260507073051 | 20 | 165 | 3.2 | 11.3 | 0.00 | 0.00 | 0.00 | 48 | 1005.9 |
| 20260507071546 | 18 | 0 | 1.6 | 11.3 | 0.00 | 0.00 | 0.00 | 52 | 1006.1 |
| 20260507070100 | 17 | 91 | 1.6 | 14.5 | 0.00 | 0.00 | 0.00 | 54 | 1006.1 |
| 20260507064548 | 17 | 133 | 1.6 | 14.5 | 0.00 | 0.00 | 0.00 | 57 | 1006.0 |
| 20260507063051 | 16 | 0 | 4.8 | 11.3 | 0.00 | 0.00 | 0.00 | 60 | 1006.0 |
| 20260507061547 | 16 | 38 | 3.2 | 8.0 | 0.00 | 0.00 | 0.00 | 61 | 1005.9 |
| 20260507054554 | 15 | 134 | 3.2 | 11.3 | 0.00 | 0.00 | 0.00 | 65 | 1006.2 |
| 20260507053051 | 14 | 118 | 3.2 | 9.7 | 0.00 | 0.00 | 0.00 | 68 | 1006.0 |
| 20260507051549 | 13 | 124 | 4.8 | 16.1 | 0.00 | 0.00 | 0.00 | 70 | 1006.0 |
| 20260507050050 | 12 | 110 | 6.4 | 14.5 | 0.00 | 0.00 | 0.00 | 72 | 1006.0 |